Overview Statistics Trail Chart Weather Telemetry Raw packets
 

This is the latest recevied weather packets stored in our database for station/object K4IR. If no packets are shown the sender has not sent any weather packets the latest 10 day(s).

<< 2 3 4 5 6 7 8 >>
Time Temp. Humidity Pressure Rain* Wind** Luminosity Snow
1788577738 25° C 96% 1014.7 hPa 0 mm - 0 W/m² -
1788577138 25° C 95% 1014.8 hPa 0 mm - 0 W/m² -
1788576536 25.56° C 95% 1014.9 hPa 0 mm - 0 W/m² -
1788575932 25.56° C 95% 1015.2 hPa 0 mm - 0 W/m² -
1788575331 25.56° C 94% 1015.2 hPa 0 mm - 0 W/m² -
1788574727 26.11° C 94% 1015.4 hPa 0 mm - 0 W/m² -
1788574123 26.11° C 94% 1015.3 hPa 0 mm - 0 W/m² -
1788573523 26.11° C 93% 1015.5 hPa 0 mm - 0 W/m² -
1788572922 26.67° C 93% 1015.4 hPa 0 mm - 0 W/m² -
1788572318 26.67° C 93% 1015.1 hPa 0 mm - 0 W/m² -
1788571715 26.11° C 93% 1014.5 hPa 0 mm - 0 W/m² -
1788571113 26.11° C 93% 1014.8 hPa 0 mm - 0 W/m² -
1788570509 26.11° C 93% 1014.6 hPa 0 mm - 0 W/m² -
1788569906 26.11° C 93% 1014.5 hPa 0 mm - 0 W/m² -
1788569302 26.11° C 92% 1014.4 hPa 0 mm - 0 W/m² -
1788568698 26.67° C 92% 1014.6 hPa 0 mm - 0 W/m² -
1788568094 26.67° C 91% 1014.7 hPa 0 mm - 0 W/m² -
1788567489 26.67° C 91% 1014.7 hPa 0 mm - 0 W/m² -
1788566884 27.22° C 90% 1014.7 hPa 0 mm - 0 W/m² -
1788566281 27.22° C 89% 1014.5 hPa 0 mm - 0 W/m² -
1788565676 27.22° C 89% 1014.2 hPa 0 mm - 0 W/m² -
1788565073 27.78° C 88% 1014.4 hPa 0 mm - 2 W/m² -
1788564471 27.78° C 87% 1014.2 hPa 0 mm - 6 W/m² -
1788563883 28.33° C 85% 1013.9 hPa 0 mm - 11 W/m² -
1788563264 28.33° C 84% 1013.9 hPa 0 mm - 15 W/m² -

* Rain latest hour (hover to see other rain measurements)
** Current wind speed in m/s (hover to see current wind gust speed)